TimeMDT,TemperatureF,Dew PointF,Humidity,Sea Level PressureIn,VisibilityMPH,Wind Direction,Wind SpeedMPH,Gust SpeedMPH,PrecipitationIn,Events,Conditions,WindDirDegrees,DateUTC
12:53 AM,71.1,37.0,29,29.92,10.0,South,5.8,-,N/A,,Partly Cloudy,170,2013-06-27 06:53:00
1:53 AM,69.1,39.0,33,29.93,10.0,South,4.6,-,N/A,,Partly Cloudy,190,2013-06-27 07:53:00
2:53 AM,69.1,37.9,32,29.93,10.0,SW,3.5,-,N/A,,Clear,220,2013-06-27 08:53:00
3:53 AM,66.9,37.0,33,29.94,10.0,SSW,5.8,-,N/A,,Clear,200,2013-06-27 09:53:00
4:53 AM,66.0,37.0,34,29.97,10.0,NNE,5.8,-,N/A,,Partly Cloudy,30,2013-06-27 10:53:00
5:53 AM,63.0,39.0,41,29.99,10.0,SW,6.9,-,N/A,,Clear,230,2013-06-27 11:53:00
6:53 AM,69.1,39.9,35,30.01,10.0,Calm,Calm,-,N/A,,Clear,0,2013-06-27 12:53:00
7:53 AM,79.0,35.1,20,30.02,10.0,Variable,4.6,-,N/A,,Clear,0,2013-06-27 13:53:00
8:53 AM,84.0,35.1,17,30.03,10.0,NW,5.8,-,N/A,,Clear,320,2013-06-27 14:53:00
9:53 AM,86.0,32.0,14,30.04,10.0,North,11.5,-,N/A,,Partly Cloudy,360,2013-06-27 15:53:00
10:53 AM,88.0,34.0,15,30.05,10.0,NNE,5.8,-,N/A,,Partly Cloudy,30,2013-06-27 16:53:00
11:53 AM,89.1,32.0,13,30.05,10.0,ENE,8.1,-,N/A,,Partly Cloudy,60,2013-06-27 17:53:00
12:53 PM,91.0,34.0,13,30.05,10.0,East,9.2,-,N/A,,Partly Cloudy,80,2013-06-27 18:53:00
1:53 PM,91.9,35.1,13,30.03,10.0,ENE,6.9,18.4,N/A,,Partly Cloudy,60,2013-06-27 19:53:00
2:53 PM,93.0,36.0,13,30.02,10.0,NE,15.0,18.4,N/A,,Partly Cloudy,40,2013-06-27 20:53:00
3:53 PM,93.0,35.1,13,30.01,10.0,NNE,13.8,20.7,N/A,,Scattered Clouds,20,2013-06-27 21:53:00
4:53 PM,93.0,33.1,12,30.00,10.0,NNE,10.4,-,N/A,,Partly Cloudy,30,2013-06-27 22:53:00
5:53 PM,91.9,34.0,13,30.00,10.0,ENE,10.4,20.7,N/A,,Partly Cloudy,70,2013-06-27 23:53:00
6:53 PM,90.0,35.1,14,29.99,10.0,East,9.2,-,N/A,,Partly Cloudy,100,2013-06-28 00:53:00
7:53 PM,86.0,37.9,18,29.99,10.0,East,6.9,-,N/A,,Scattered Clouds,100,2013-06-28 01:53:00
8:53 PM,79.0,39.0,24,30.01,10.0,ESE,6.9,-,N/A,,Scattered Clouds,110,2013-06-28 02:53:00
9:53 PM,78.1,39.9,25,30.04,10.0,ESE,9.2,-,N/A,,Partly Cloudy,120,2013-06-28 03:53:00
10:53 PM,77.0,41.0,28,30.06,10.0,SSE,10.4,-,N/A,,Partly Cloudy,150,2013-06-28 04:53:00
11:53 PM,75.0,43.0,32,30.07,10.0,SSE,12.7,-,N/A,,Partly Cloudy,150,2013-06-28 05:53:00